Location: Boiro
(42.6475°N, 8.8834°W)
Time: 02:10:15
(UTC+01:00)

Tiros 1 despin weight - Pass Details

Date: 09 December 2021
Orbit: 592 x 641 km, 48.2° (Epoch: 23 January)

Event Time Altitude Azimuth Distance (km) Brightness Sun altitude
Rises 15:59:22 0° 288° (WNW) 2,836 ? 15.8°
Reaches altitude 10° 16:01:46 10° 296° (WNW) 1,929 ? 15.5°
Maximum altitude 16:05:58 42° 8° (N) 850 ? 15.1°
Drops below altitude 10° 16:10:10 10° 80° (E) 1,920 ? 14.6°
Sets 16:12:33 0° 87° (E) 2,822 ? 14.3°
